116P/Wild 4 (2022)

Japanese version
Home page
Updated on July 4, 2022

---------------------------------------------------------------------

* Profile

* Pictures

* Orbital Elements

Epoch 2022 Jan. 21.0 TT = JDT 2459600.5
T 2022 July 16.96631 TT                                 Rudenko
q   2.1969829            (2000.0)            P               Q
n   0.15112834     Peri.  173.30601     -0.96898919     +0.24607625
a   3.4906431      Node    20.98100     -0.22952723     -0.86259388
e   0.3706080      Incl.    3.60343     -0.09152708     -0.44201614
P   6.52
From 1329 observations 2014 Oct. 31-2022 Feb. 2, mean residual 0".9.

* Finding Charts

* Magnitudes Graph

        m1 = 3.5 + 5 log d + 25.0 log r

---------------------------------------------------------------------

The orbital elements are published on M.P.E.C. 2022-C56.
The charts are made with StellaNavigator Ver.10 (AstroArts).
The magnitudes graphs are made with Comet for Windows.

---------------------------------------------------------------------

Copyright(C) Seiichi Yoshida (comet@aerith.net). All rights reserved.